Погода в Ваддуве

Шри-Ланка     6°39′47″N   79°55′42″E
темп.,
°C
ветер,
м/с
пор.,
м/с
влажн.,
%
обл.,
%
осадки,
мм/ч
давл.,
гПа
погр.,
м
27 февраля, сб
сб2723:30+23св118263 0.0 101128
02:30+23всв118623 0.0 100827
05:30+22в119244 0.0 100927
08:30+27в016813 0.0 1012417
11:30+32з225021 0.0 10111339
14:30+31з545437 0.0 1007815
17:30+28зсз236659 0.0 1007665
20:30+24ссз118061 0.0 101045
28 февраля, вс
вс2823:30+23всв228738 0.0 101050
02:30+22в12890 0.0 100830
05:30+22юв22940 0.0 100849
08:30+27ююв35731 0.0 1011500
11:30+33ююз224649 0.0 10111381
14:30+31зюз5458100 0.0 1007831
17:30+28юз2373100 0.0 1007764
20:30+26ю1282100 0.0 1010121
1 марта, пн
пн123:30+25юв1179100 0.1 101269
02:30+23юв0187100 0.0 100938
05:30+22всв1293100 0.0 101034
08:30+26в1176100 0.0 1013266
11:30+33зсз234582 0.0 10131512
14:30+30з546367 0.0 1009860
17:30+27з347354 0.0 1009772
20:30+25зсз118249 0.1 101258
2 марта, вт
вт223:30+23ссв118853 0.3 101344
02:30+22всв12945 0.0 101041
05:30+21в229614 0.1 101037
08:30+26в127851 0.1 1013264
11:30+31зюз224851 0.1 10131449
14:30+30зюз53532 0.0 10091073
17:30+27юз34652 0.0 1009799
20:30+24ююв11791 0.0 101157
3 марта, ср
ср323:30+23всв118317 0.0 101239
02:30+22всв128820 0.0 100930
05:30+21всв129210 0.0 100934
08:30+26всв12700 0.0 1012350
11:30+33з22430 0.0 10111477
14:30+30з54540 0.0 1008761
17:30+27зюз34640 0.0 1008723
20:30+25зсз117143 0.0 101153